Regional Weather Roundup
Issued by NWS

Home | Current Version | Previous Version | Text Only | Print | Product List | Glossary Off
Versions: 1 2 3 4 5 6 7 8 9 10 11 12 13 14 15 16 17 18 19 20 21 22 23 24 25 26 27 28 29 30 31 32 33 34 35 36 37 38 39 40 41 42 43 44 45 46 47 48 49 50

000
ASUS45 KBOU 251010
RWRCO

WEATHER ROUNDUP FOR COLORADO
NATIONAL WEATHER SERVICE DENVER/BOULDER CO
300 AM MST SUN FEB 25 2018

NOTE: "FAIR" INDICATES FEW OR NO CLOUDS BELOW 12000 FEET WITH NO
SIGNIFICANT WEATHER AND/OR OBSTRUCTIONS TO VISIBILITY.

COZ001>005-013-030-031-251100-
...NORTHWEST COLORADO...

CITY           SKY/WX    TMP DP  RH WIND       PRES   REMARKS
CRAIG          CLOUDY     4   1  88 CALM      29.91F
HAYDEN         FLURRIES  13  10  88 CALM      29.90S
MEEKER         MOCLDY    14   9  80 CALM      29.91S
RANGELY        FAIR       9   7  91 CALM      29.97S
RABBIT EARS PA LGT SNOW N/A N/A N/A W8G17     29.70F VSB 1
STEAMBOAT SPGS CLOUDY    14  11  90 CALM      29.86F VSB 3/4
WALDEN         FAIR      12   0  57 W7        29.79S WCI   2
$$

COZ006>008-011-251100-
...WEST CENTRAL VALLEYS...

CITY           SKY/WX    TMP DP  RH WIND       PRES   REMARKS
GRAND JUNCTION FAIR      23  19  85 CALM      29.97R
MONTROSE       MOCLDY    23  17  78 CALM      29.97S
EAGLE          FAIR      14  10  84 E8        29.91F WCI   3
RIFLE          MOCLDY    15   9  76 SW6       29.95F WCI   6
DELTA          FAIR      21  17  85 N5        29.97S WCI  15
NUCLA          FAIR      19  14  79 E10       29.98F WCI   8
$$

COZ017>023-064>068-251100-
...SOUTHWEST COLORADO...

CITY           SKY/WX    TMP DP  RH WIND       PRES   REMARKS
DURANGO        CLOUDY    23  15  71 W9        29.91F WCI  13
CORTEZ         CLOUDY    26  18  71 NW8       29.96S WCI  18
PAGOSA SPRINGS CLOUDY    17  15  91 CALM      29.89F
TELLURIDE      LGT SNOW  13  11  90 SW3       29.86F
WOLF CREEK PAS CLOUDY     1   0  92 SW14G24   29.78F WCI -17
$$

COZ009-010-012-014-032>034-037-058>063-251100-
...CENTRAL COLORADO...

CITY           SKY/WX    TMP DP  RH WIND       PRES   REMARKS
ASPEN          CLOUDY    12   9  87 CALM      29.85R FOG
BUENA VISTA    CLOUDY    16   8  68 CALM      29.81S
COPPER MTN     LGT SNOW   1  -6  71 W14       29.65F WCI -17
BERTHOUD PASS  LGT SNOW  -6 -17  59 NW33G43   29.57F VSB 3/4 WCI -35
COTTONWOOD PAS CLOUDY    16  10  79 W5        29.74F WCI   9
GUNNISON       CLOUDY    16  11  80 W6        29.86S WCI   7
GRANBY         CLOUDY     9   3  75 NE3       29.81S
KREMMLING      FAIR      12   5  73 SE3       29.86S
LEADVILLE      LGT SNOW   5   1  83 NW6       29.73S FOG     WCI  -6
MONARCH PASS   CLOUDY     1  -4  78 W31G41    29.76F WCI -24
SALIDA         FAIR      20   8  59 W7        29.90S WCI  11
SUNLIGHT       LGT SNOW   3   0  85 SW8       29.79F WCI -10
WILKERSON PASS CLOUDY     1  -4  78 SW13      29.70S HAZE    WCI -16
$$

COZ069>075-251100-
...SAN LUIS VALLEY/SANGRE DE CRISTO MOUNTAINS...

CITY           SKY/WX    TMP DP  RH WIND       PRES   REMARKS
ALAMOSA        FAIR      16   6  65 S12       29.84F WCI   3
DEL NORTE      FAIR      17   6  62 W13       29.84S WCI   3
LA VETA PASS   CLOUDY    10   5  79 S16G26    29.86F WCI  -7
SAGUACHE       NOT AVBL
$$

COZ035-036-038>040-251100-
...NORTHERN COLORADO FRONT RANGE...

CITY           SKY/WX    TMP DP  RH WIND       PRES   REMARKS
DENVER INTL AP FAIR      17   4  56 SW8       29.81S WCI   7
AURORA         PTCLDY    17   3  55 SW3       29.81F
FRONT RANGE AP FAIR      23   6  47 SW9       29.82S WCI  13
ERIE MUNI ARPT FAIR      25   5  41 W9        29.87F WCI  15
BOULDER MUN AP FAIR      28   5  37 W24G33    29.79F WCI  14
CENTENNIAL     FAIR      22   4  46 SW13      29.80F WCI  10
BROOMFIELD     NOT AVBL
FORT COLLINS   FAIR      19   4  51 VRB3      29.81F
LONGMONT       FAIR      28   4  35 SW7       29.81F WCI  21
$$

COZ041-046-047-076>085-087-088-251100-
...PIKES PEAK/PALMER DIVIDE AND SOUTHERN FOOTHILLS...

CITY           SKY/WX    TMP DP  RH WIND       PRES   REMARKS
COLO. SPRINGS  FAIR      17   4  56 N3        29.84F
A. F. ACADEMY  FAIR      15   2  55 E5        29.81F WCI   8
SCHRIEVER AFB  NOT AVBL
CHEYENNE MTN   FAIR      21   1  42 S8        29.75F WCI  12
ELLICOTT         N/A    N/A N/A N/A SW3         N/A
FALCON         FAIR      12   2  64 W7        29.81F WCI   2
FORT CARSON    FAIR      19   4  51 SW8       29.83F WCI   9
LIMON          FAIR       6   3  87 N3        29.84F
MONUMENT HILL  FAIR      18   1  49 SW10      29.80F WCI   6
CANON CITY     CLEAR     19   7  58 N5        29.87S WCI  13
WALSENBURG     NOT AVBL
TRINIDAD       FAIR      28   3  34 W3        29.83F
$$

COZ042>045-048>051-090-091-251100-
...NORTHEAST COLORADO...

CITY           SKY/WX    TMP DP  RH WIND       PRES   REMARKS
GREELEY ARPT   FAIR      16   9  74 CALM      29.83F
AKRON          FAIR      20   8  60 W6        29.81F WCI  12
BURLINGTON     FAIR      17  11  77 SW7       29.88F WCI   8
WRAY           FAIR      25  16  68 W7        29.86F WCI  17
YUMA           NOT AVBL
STERLING       FAIR      21  12  68 SW8       29.84R WCI  12
HOLYOKE        FAIR      28  16  59 W9        29.84F WCI  20
FORT MORGAN    FAIR      18   6  59 SW6       29.83F WCI  10
$$

COZ086-089-092>099-251100-
...SOUTHEAST COLORADO...

CITY           SKY/WX    TMP DP  RH WIND       PRES   REMARKS
PUEBLO         FAIR      13   5  70 NW3       29.89S
LA JUNTA       FAIR      18   8  65 NE7       29.90F WCI   9
LAMAR          FAIR       8   2  76 SW3       29.91S
SPRINGFIELD      N/A     14   4  64 N6        29.87F WCI   5
$$



USA.gov is the U.S. government's official web portal to all federal, state and local government web resources and services.